Location: College Park
(38.9810°N, 76.9370°W)
Time: 13:04:04
(UTC-05:00)

Tiangong 1 - Pass Details

Date: 17 February 2018
Orbit: 245 x 266 km, 42.8° (Epoch: 24 February)

Event Time Altitude Azimuth Distance (km) Brightness Sun altitude
Exits shadow 05:47:04 50° 307° (NW) 329 0.3 -14.2°
Maximum altitude 05:47:31 76° 18° (NNE) 263 0.2 -14.1°
Drops below altitude 10° 05:49:48 10° 106° (ESE) 1,029 4.6 -13.6°
Sets 05:51:42 0° 108° (ESE) 1,836 6.2 -13.3°
